This is the latest recevied weather packets stored in our database for station/object VE6EN. If no packets are shown the sender has not sent any weather packets the latest 1 day(s).
| Time | Temp. | Humidity | Pressure | Rain* | Wind** | Luminosity | Snow |
|---|---|---|---|---|---|---|---|
| 1836274377 | 14.44° C | 67% | 1012.3 hPa | 0 mm | 0 m/s | - | - |
| 1836274228 | 14.44° C | 67% | 1012.3 hPa | 0 mm | 0 m/s | - | - |
| 1778060397 | 0.56° C | 57% | 1012 hPa | 0 mm | 0 m/s | - | - |
| 1778059798 | 0.56° C | 56% | 1012.2 hPa | 0 mm | 0 m/s | - | - |
| 1778059200 | 0.56° C | 56% | 1012.3 hPa | 0 mm | 0 m/s | - | - |
| 1778058599 | 0.56° C | 55% | 1012.3 hPa | 0 mm | 0.45 m/s, 31° | - | - |
| 1778058000 | 0.56° C | 55% | 1012.5 hPa | 0 mm | 0.45 m/s, 70° | - | - |
| 1778057397 | 1.11° C | 55% | 1012.6 hPa | 0 mm | 0.45 m/s, 55° | - | - |
| 1778056799 | 1.11° C | 54% | 1012.7 hPa | 0 mm | 0.45 m/s, 55° | - | - |
| 1778056196 | 1.11° C | 54% | 1012.8 hPa | 0 mm | 0.45 m/s, 90° | - | - |
| 1778055596 | 1.11° C | 54% | 1013 hPa | 0 mm | 0.45 m/s, 36° | - | - |
| 1778054997 | 1.11° C | 54% | 1013 hPa | 0 mm | 0.45 m/s, 59° | - | - |
| 1778054398 | 1.11° C | 54% | 1013.2 hPa | 0 mm | 0.45 m/s, 78° | - | - |
| 1778053798 | 1.11° C | 54% | 1013.3 hPa | 0 mm | 0.45 m/s, 38° | - | - |
| 1778053197 | 1.11° C | 54% | 1013.4 hPa | 0 mm | 0.45 m/s, 59° | - | - |
| 1778052597 | 1.11° C | 53% | 1013.5 hPa | 0 mm | 0 m/s | - | - |
| 1778051996 | 1.67° C | 53% | 1013.7 hPa | 0 mm | 0.45 m/s, 48° | - | - |
| 1778051398 | 1.67° C | 52% | 1013.8 hPa | 0 mm | 0.45 m/s, 82° | - | - |
| 1778050799 | 1.67° C | 51% | 1013.9 hPa | 0 mm | 0.45 m/s, 53° | - | - |
| 1778050200 | 1.67° C | 51% | 1014 hPa | 0 mm | 0.45 m/s, 36° | - | - |
| 1778049599 | 2.22° C | 50% | 1014.2 hPa | 0 mm | 0.45 m/s, 96° | - | - |
| 1778048999 | 2.22° C | 50% | 1014.3 hPa | 0 mm | 0 m/s | - | - |
| 1778048399 | 2.22° C | 49% | 1014.3 hPa | 0 mm | 0 m/s | - | - |
| 1778047799 | 2.78° C | 48% | 1014.5 hPa | 0 mm | 0 m/s | - | - |
| 1778047199 | 2.78° C | 48% | 1014.6 hPa | 0 mm | 0.45 m/s, 70° | - | - |
* Rain latest hour (hover to see other rain measurements)
** Current wind speed in m/s (hover to see current wind gust speed)